Location: Gajan
(43.0218°N, 1.1244°E)
Time: 16:37:25
(UTC+00:00)

Cosmos 2292 Rocket - Pass Details

Date: 22 April 2021
Orbit: 380 x 1448 km, 83.0° (Epoch: 13 May)

Event Time Altitude Azimuth Distance (km) Brightness Sun altitude
Rises 19:54:49 0° 353° (N) 3,928 8.2 -12.2°
Reaches altitude 10° 19:57:48 10° 356° (N) 2,796 7.4 -12.7°
Maximum altitude 20:04:05 67° 79° (E) 875 4.1 -13.7°
Enters shadow 20:07:57 15° 160° (SSE) 1,790 5.5 -14.3°
